sat.trackr.live / text

‹ back to catalog

STARLINK-11176 [DTC]

NORAD 60060 · 2024-113B

PAYLOAD ACTIVE UNKNOWN

§ Identity

Operator
Country
US
Launch date
2024-06-19
Launch site
AFWTR
Launch vehicle
Mass (kg)
RCS (m²)

Purposes: comms

External: N2YO · Heavens-Above · Gunter

§ Orbital elements

Epoch: 2026-05-24T19:06:59.634720Z

Period
91.73 min
Inclination
53.1588°
Eccentricity
0.0000902
Mean motion
15.69744565 rev/d
Perigee alt
359.0 km
Apogee alt
360.2 km
Semi-major
6,737.8 km
B*
-5.0092e-5
RAAN
176.1093°
Arg perigee
76.9384°
Mean anomaly
283.1735°
Rev number
11,151

§ Raw data

STARLINK-11176 [DTC]1 60060U 24113B   26144.79652355 -.00006661  00000+0 -50092-4 0  99922 60060  53.1588 176.1093 0000902  76.9384 283.1735 15.69744565111519

JSON: /api/v1/satellites/60060 · /tle

For live sub-satellite position, see the globe view (requires WebGL).

§ Visibility from observer

Set your observer location to see the next 7 days of passes ≥ 10°. The values pass through the URL so the page stays shareable.

No JS? Fill the form by hand. The geolocation button needs JavaScript.